CAPE
0 0 0 0 0 2 0 0 0 0 0 0 0 0 0 0 0 0 162 524 615 755 1450 1809 2351 2483 2381 2319 2153 1899 1798 1630 1543 1319 351 137 445 420 513 429 195 475 62 498 466 403 430 273 125
0 0 0 0 0 0 0 0 0 0 0 0 0 0 0 0 0 0 404 599 672 898 1428 1515 2268 2409 2374 2257 2101 1863 1781 1660 1569 1455 520 597 771 838 731 545 723 776 720 463 663 390 236 34 0
0 0 0 0 0 0 0 0 0 0 0 0 0 0 0 0 0 0 75 651 823 1046 1385 1325 2244 2341 2324 2218 2040 1883 1776 1712 1650 1742 1045 1018 1196 1068 953 1107 888 701 646 309 365 208 1 0 47
0 0 0 0 0 0 0 0 0 0 0 0 0 0 0 0 0 0 0 710 878 1099 1278 1358 2119 2272 2190 2111 2022 1911 1860 1820 1722 1785 1429 1321 1372 1310 1129 1150 785 405 181 99 119 4 0 0 0
0 0 0 0 0 0 0 0 0 0 0 0 0 0 0 0 0 0 0 0 404 1013 1171 1286 2076 2254 2144 2043 2014 1860 1811 1991 1924 1773 1665 1429 1289 1402 1175 900 576 325 187 30 0 0 0 0 0
0 0 0 0 0 0 0 0 0 0 0 0 0 0 0 0 0 0 0 0 0 103 939 1260 1732 1961 2000 1965 1942 1854 1799 1851 1802 1630 1520 1337 1284 1350 948 548 470 255 2 0 0 0 0 0 12
0 0 0 0 0 0 0 0 0 0 0 0 0 0 0 0 0 0 0 0 0 0 512 1197 1386 1665 1702 1650 1669 1728 1723 1682 1586 1528 1308 1020 1068 994 661 476 399 28 1 0 0 0 0 0 0
0 0 0 0 0 0 0 0 0 0 0 0 0 0 0 0 0 0 0 0 0 0 52 1000 1135 1366 1559 1435 1389 1435 1483 1352 1246 1125 858 629 609 515 546 259 306 160 4 0 0 0 0 0 0
0 0 0 0 0 0 0 0 0 0 0 0 0 0 0 0 0 0 0 0 0 0 0 580 1004 993 1408 1380 1214 1182 1138 1055 910 673 292 252 366 307 158 52 142 80 0 0 0 0 0 0 0
0 1 0 0 0 0 0 0 0 0 0 0 0 0 0 0 0 0 0 0 0 0 0 0 669 826 1000 1112 1082 1065 974 878 632 420 192 137 133 31 17 52 49 36 0 0 0 0 0 0 0
1 0 0 0 0 0 0 0 0 0 0 0 0 0 0 0 0 0 0 0 0 0 0 0 8 685 673 886 862 849 856 714 364 244 116 1 0 0 2 39 2 0 0 0 0 0 0 0 0
0 0 0 0 0 0 0 0 0 0 0 0 0 0 0 0 0 0 0 0 0 0 0 0 0 602 447 597 635 595 579 459 324 316 23 0 0 0 2 2 0 0 0 0 0 0 0 0 0
0 0 0 0 0 0 0 0 0 0 0 0 0 0 0 0 0 0 0 0 0 0 0 0 0 317 267 495 493 394 347 298 272 62 0 0 0 0 0 0 0 0 0 0 0 0 0 0 0
11 13 0 0 0 0 0 0 0 0 0 0 0 0 0 0 0 0 0 0 0 0 0 0 0 349 313 301 351 265 253 151 72 0 0 0 0 0 0 0 0 0 0 0 0 0 0 0 0
0 12 0 0 0 0 0 0 0 0 0 0 0 0 0 0 0 0 0 0 0 0 0 0 13 401 412 199 285 184 136 78 21 3 0 0 0 0 0 0 0 0 0 0 0 0 0 0 0
9 1 1 0 0 0 0 0 0 0 0 0 0 0 0 0 0 0 0 0 3 31 1 0 76 443 235 100 192 176 82 29 20 3 0 0 0 0 0 0 0 0 0 0 0 0 0 0 0
0 6 0 0 0 0 0 0 0 0 0 0 0 0 0 0 0 0 0 0 89 5 0 0 0 244 56 58 143 132 118 24 5 1 0 0 0 0 0 0 0 0 0 0 0 0 0 0 0
0 7 0 1 0 0 1 0 0 0 0 0 0 0 0 0 1 0 0 39 34 0 0 0 0 10 115 166 115 126 91 18 0 0 3 0 0 0 0 0 0 0 0 0 0 0 0 0 0
3 2 0 0 0 0 0 0 0 0 0 0 0 0 0 32 21 25 33 108 12 17 1 0 0 0 133 131 67 99 47 41 2 0 0 0 0 0 0 1 0 0 0 0 0 0 0 0 0
40 14 0 0 0 0 0 0 0 4 15 13 6 0 0 2 20 43 35 152 41 26 0 0 0 1 2 2 35 87 14 7 0 0 0 0 0 0 0 0 0 0 0 0 0 0 0 0 0
2 2 1 0 0 0 0 0 0 0 0 0 0 3 1 0 1 88 114 134 95 18 0 14 11 4 23 1 1 17 12 0 1 0 0 0 0 0 0 0 0 0 0 0 0 0 0 0 0
0 0 1 0 0 0 0 0 0 0 4 5 0 0 5 102 72 80 64 21 89 33 7 3 3 2 23 0 1 3 1 0 0 0 0 0 0 0 0 0 0 0 0 0 0 0 0 0 2
0 0 0 0 0 0 0 1 3 2 4 18 14 7 3 88 87 60 109 131 57 25 9 14 1 1 23 19 0 6 2 0 3 0 0 0 0 0 23 0 0 0 0 0 0 0 10 1 7
3 2 0 0 0 0 0 1 0 4 2 14 9 5 2 5 96 124 130 223 87 16 1 1 2 11 29 42 2 2 0 0 1 0 0 0 0 3 72 56 12 3 11 19 30 28 24 8 7
0 0 0 3 1 4 0 0 14 0 0 1 19 8 3 2 86 21 53 39 14 1 1 0 0 0 18 68 29 2 0 0 0 0 0 0 2 0 9 95 101 86 59 45 31 20 3 11 2
0 1 0 0 0 1 0 0 1 0 0 0 0 0 0 2 3 3 4 37 32 17 9 0 6 12 3 66 70 8 0 0 2 19 19 20 35 29 49 121 178 159 89 42 61 39 30 4 12
0 0 1 2 0 0 0 0 0 0 0 0 0 0 1 1 1 0 0 1 20 1 0 18 0 1 11 2 67 5 0 0 0 0 0 15 60 41 75 145 97 73 58 65 37 27 14 20 3
0 0 0 0 0 0 0 0 0 1 0 0 0 0 0 0 0 0 0 0 0 0 4 5 6 7 4 2 1 1 0 0 0 0 4 0 0 2 3 38 43 26 28 27 36 37 23 29 39
0 0 0 0 0 0 0 6 15 0 0 0 0 0 0 0 0 0 0 0 0 0 0 2 28 3 24 19 1 1 1 1 0 0 1 1 2 6 0 0 9 14 31 12 6 15 13 40 31
0 0 0 0 0 0 0 0 1 0 0 0 0 0 0 0 0 0 0 0 0 0 0 0 0 17 1 0 1 0 1 6 5 5 9 4 18 5 8 4 1 1 1 2 5 40 27 25 5
CIN
0 0 0 0 0 0 0 0 0 0 0 0 0 0 0 0 0 0 -341 -397 -402 -372 -205 -137 -64 -33 -15 -4 -3 -2 0 0 0 0 -106 -187 -13 -20 -16 -53 -151 -63 -242 -76 -84 -112 -84 -129 -199
0 0 0 0 0 0 0 0 0 0 0 0 0 0 0 0 0 0 -250 -301 -346 -303 -180 -130 -42 -26 -18 -9 -3 -5 0 0 0 0 -68 -17 0 0 0 -29 -25 -34 -42 -73 -44 -106 -155 -157 0
0 0 0 0 0 0 0 0 0 0 0 0 0 0 0 0 0 0 -427 -212 -234 -220 -188 -157 -38 -20 -10 -6 0 -3 -1 0 0 0 0 0 0 0 0 0 -2 -27 -44 -98 -85 -138 0 0 -201
0 0 0 0 0 0 0 0 0 0 0 0 0 0 0 0 0 0 0 -90 -119 -179 -161 -150 -36 -14 -7 -2 0 0 0 0 0 0 0 0 0 0 0 0 -13 -59 -136 -198 -171 -46 0 0 0
0 0 0 0 0 0 0 0 0 0 0 0 0 0 0 0 0 0 0 0 -70 -38 -157 -140 -26 -5 -3 0 0 0 0 0 0 0 0 0 0 0 0 -2 -21 -69 -127 -251 0 0 0 0 0
0 0 0 0 0 0 0 0 0 0 0 0 0 0 0 0 0 0 0 0 0 -105 -29 -53 -55 -10 -1 0 0 0 0 0 0 0 0 0 0 0 -3 -32 -30 -82 0 0 0 0 0 0 -1
0 0 0 0 0 0 0 0 0 0 0 0 0 0 0 0 0 0 0 0 0 0 -105 -1 -6 -45 -10 -3 -1 -1 0 0 0 0 0 0 0 0 -18 -42 -46 -241 0 0 0 0 0 0 0
0 0 0 0 0 0 0 0 0 0 0 0 0 0 0 0 0 0 0 0 0 0 -117 -5 -5 -2 -7 -19 -3 -2 -1 -1 0 -1 -4 -6 -3 -3 -12 -47 -53 -87 0 0 0 0 0 0 0
0 0 0 0 0 0 0 0 0 0 0 0 0 0 0 0 0 0 0 0 0 0 0 -2 -2 -2 -1 0 -11 -11 -9 -6 -5 -16 -73 -74 -36 -30 -53 -113 -57 -100 0 0 0 0 0 0 0
0 0 0 0 0 0 0 0 0 0 0 0 0 0 0 0 0 0 0 0 0 0 0 0 -1 0 -1 -1 -2 -13 -13 -4 -15 -45 -75 -97 -94 -157 -166 -105 -114 -140 0 0 0 0 0 0 0
-3 0 0 0 0 0 0 0 0 0 0 0 0 0 0 0 0 0 0 0 0 0 0 0 -41 -1 -1 -1 -1 -2 -9 -18 -60 -85 -108 -31 0 0 -208 -107 -13 0 0 0 0 0 0 0 0
0 0 0 0 0 0 0 0 0 0 0 0 0 0 0 0 0 0 0 0 0 0 0 0 0 -1 0 -1 -1 -2 -13 -31 -61 -66 -186 0 0 0 0 -1 0 0 0 0 0 0 0 0 0
0 0 0 0 0 0 0 0 0 0 0 0 0 0 0 0 0 0 0 0 0 0 0 0 0 -17 -2 -1 -1 -3 -20 -53 -61 -161 0 0 0 0 0 0 0 0 0 0 0 0 0 0 0
-29 -28 0 0 0 0 0 0 0 0 0 0 0 0 0 0 0 0 0 0 0 0 0 0 0 -15 -1 -1 -6 -19 -45 -76 -113 0 0 0 0 0 0 0 0 0 0 0 0 0 0 0 0
0 -5 0 0 0 0 0 0 0 0 0 0 0 0 0 0 0 0 0 0 0 0 0 0 -125 -51 -3 -5 -2 -67 -103 -134 -246 -83 0 0 0 0 0 0 0 0 0 0 0 0 0 0 0
-11 -1 -2 0 0 0 0 0 0 0 0 0 0 0 0 0 0 0 0 0 -24 -42 -9 0 -9 -8 -4 -19 -7 -24 -72 -221 -275 -281 0 0 0 0 0 0 0 0 0 0 0 0 0 0 0
0 0 -2 0 0 -12 0 0 0 0 0 0 0 0 0 0 0 0 0 0 -31 -23 0 0 0 -15 -59 -92 -25 -4 -32 -223 -166 -126 0 0 0 0 0 0 0 0 0 0 0 0 0 0 0
-3 -1 -1 -1 0 0 -1 0 0 0 0 0 0 0 0 0 -40 0 0 -46 -78 0 0 0 0 -9 -26 -5 -4 -4 -17 -59 0 0 -334 0 0 0 0 -149 0 0 0 0 0 0 0 0 0
0 0 0 0 0 -1 0 0 0 0 -7 0 0 0 0 -23 -30 -34 -53 -22 -51 -113 -355 0 0 0 -75 -1 -54 -5 -6 -36 -66 0 0 0 0 0 0 -72 0 0 0 0 0 0 0 0 0
-1 -3 0 0 0 0 0 0 0 0 -1 -1 -2 -2 0 -23 -6 -64 -55 -16 -65 -285 0 -1 -42 -16 0 -8 -31 -13 -30 -97 0 0 0 0 0 0 0 -139 0 0 0 0 0 0 0 0 0
-14 -8 -11 0 0 0 0 0 0 0 0 0 0 0 -8 -2 0 -8 -13 -25 -11 -198 0 -198 -198 -103 -12 0 0 -11 -51 -10 -52 0 0 0 0 0 0 0 0 0 0 0 0 0 0 0 0
0 0 -13 0 0 0 0 0 0 0 0 0 0 0 0 -33 -43 -2 -7 -57 -123 -244 -248 -245 -180 -43 -15 0 0 -65 -80 0 0 0 0 0 0 0 0 0 0 0 0 0 0 0 0 0 -65
0 0 0 0 0 0 0 0 0 0 0 0 0 0 0 -13 -80 -82 -4 -10 -70 -68 -110 -219 -232 -70 -31 -21 -5 -31 -24 0 0 0 0 0 0 0 -195 -15 0 0 0 0 -12 -21 -254 -118 -273
-16 -14 0 0 0 0 0 0 0 0 0 0 0 0 0 -16 -69 -13 -5 0 -38 -53 0 -343 -7 -74 -34 -14 -5 -42 0 0 0 0 0 0 0 -87 -145 -138 -115 -68 -222 -247 -262 -270 -254 -282 -275
0 0 -5 -3 -13 0 0 0 -2 0 0 0 0 0 0 0 -32 -43 -34 -14 -16 0 0 0 0 0 -13 -1 -4 -13 0 0 -22 0 -42 0 -48 -15 -121 -110 -129 -145 -197 -235 -270 -266 -205 -142 -137
0 0 0 0 0 0 0 0 0 0 0 0 -1 0 0 0 0 0 -1 -6 -23 -15 -10 0 -7 -12 -9 -1 -1 -31 -9 0 -27 -63 -51 -56 -47 -59 -104 -125 -123 -154 -221 -275 -235 -205 -241 -220 -196
0 0 0 0 0 0 0 0 0 0 0 0 0 0 0 0 0 0 0 0 -6 -20 0 -17 0 0 -1 -1 -1 -7 0 0 0 0 0 -88 -52 -100 -118 -112 -192 -232 -241 -249 -291 -237 -223 -217 -90
0 0 0 0 0 0 0 0 0 0 0 0 0 0 0 0 0 0 0 0 0 0 -22 -36 -11 -17 -34 -2 0 0 0 0 0 -15 -65 0 -29 -123 -127 -198 -223 -236 -249 -255 -204 -184 -192 -138 -123
0 0 0 0 0 0 0 -1 0 0 0 0 0 0 0 0 0 0 0 0 0 0 0 -13 -17 -8 -12 -10 -8 0 0 0 -3 -2 -33 -25 -79 -141 0 -17 -190 -207 -182 -163 -139 -146 -133 -85 -77
0 0 0 0 0 0 0 0 0 0 0 0 0 0 0 0 0 0 0 0 0 0 0 0 -1 -15 -6 -29 -11 -17 -1 -2 -4 -13 -19 -8 -35 -65 -92 -131 -75 -122 -128 -115 -72 -56 -81 -77 -94
Wind_Speed
3 4 3 5 3 4 4 6 3 2 4 2 6 6 9 7 6 7 7 9 3 17 16 20 24 24 23 21 22 22 22 22 23 22 22 22 23 22 20 20 19 19 20 17 18 18 19 18 17
2 2 5 2 3 4 5 6 8 5 2 7 6 5 9 7 6 6 6 4 10 15 15 16 21 23 24 23 23 23 22 23 23 23 22 21 22 21 19 19 17 19 19 18 18 18 17 15 12
2 3 4 4 4 6 5 2 5 8 7 4 4 3 3 2 7 8 8 5 10 14 16 16 22 23 23 23 23 24 23 22 22 22 23 21 21 20 22 19 19 19 18 17 18 17 14 12 11
3 4 4 2 10 5 3 4 2 7 4 5 3 8 5 4 2 6 17 3 8 14 13 17 21 23 22 22 23 23 24 23 22 21 22 22 20 22 20 19 19 19 18 18 17 16 13 11 12
4 3 1 3 5 4 5 3 1 3 3 3 4 7 7 9 2 10 14 15 7 5 13 16 21 22 23 22 22 22 23 23 22 21 21 21 20 22 20 21 20 19 17 17 16 16 15 12 10
4 3 2 5 5 3 3 5 7 2 4 6 4 5 5 1 5 7 8 10 12 9 6 12 21 21 22 22 21 21 22 22 22 22 22 21 21 22 23 21 20 19 18 16 16 16 15 14 13
5 3 4 4 6 5 5 2 3 5 7 9 3 7 6 3 3 5 4 6 10 12 8 10 12 18 22 22 21 21 21 22 21 21 22 21 21 22 23 21 19 19 18 16 14 15 14 14 13
4 3 2 5 1 5 1 2 3 5 7 5 6 7 6 1 4 3 2 5 4 10 12 10 11 11 15 16 21 19 18 20 20 18 19 17 19 20 21 19 18 17 16 15 14 13 14 13 13
2 0 5 6 3 4 2 3 4 4 10 11 8 13 13 15 6 7 3 2 2 4 7 11 12 12 11 13 14 16 15 14 16 14 14 15 11 13 15 13 16 17 16 14 14 13 10 10 10
3 4 8 7 3 7 13 10 12 5 14 16 19 13 11 13 8 7 8 5 3 4 6 4 13 14 12 11 12 13 12 10 10 11 13 9 11 10 10 12 16 17 15 14 13 11 9 7 4
5 6 2 13 11 7 12 16 8 13 21 22 17 17 7 10 8 8 8 8 8 4 6 4 15 15 15 12 10 7 7 8 8 14 13 9 7 7 7 7 7 7 8 4 6 5 3 4 4
4 9 10 14 13 7 13 13 16 13 28 21 18 17 10 12 12 9 9 7 5 6 7 7 5 18 16 10 10 11 9 9 8 11 14 11 7 7 8 8 9 7 4 6 4 3 5 5 4
9 12 13 14 15 18 16 20 22 19 24 20 18 17 21 15 15 9 11 9 8 9 7 9 6 15 15 12 10 10 10 10 11 10 12 11 9 8 7 8 7 6 4 5 4 4 4 4 4
4 9 14 12 19 15 15 24 6 28 20 15 15 18 22 15 19 14 9 11 11 12 12 10 10 12 16 15 15 11 10 12 10 10 11 12 10 8 8 8 7 6 5 4 4 5 4 4 3
6 11 12 15 14 8 6 13 16 28 20 19 19 18 20 17 16 14 15 12 13 12 10 2 8 19 19 17 13 11 11 12 11 10 14 12 11 11 10 8 8 7 5 6 4 3 2 2 2
4 3 4 5 2 5 6 15 15 11 11 19 19 16 18 18 18 15 15 15 12 10 8 4 3 23 20 15 13 10 11 11 11 11 11 14 11 11 11 8 8 7 6 5 4 4 3 3 3
2 6 5 8 4 3 7 12 20 8 7 13 17 18 17 15 17 15 15 15 13 11 8 7 5 15 22 16 12 11 13 11 11 11 12 15 13 12 8 9 8 9 7 6 5 2 3 3 3
4 5 7 7 6 8 10 20 21 16 23 23 20 18 15 18 17 9 15 14 12 9 8 9 4 6 23 16 13 8 8 9 9 10 12 16 11 14 10 8 9 8 6 5 4 4 3 3 4
10 9 11 12 15 8 8 12 12 22 21 15 13 13 12 11 14 11 13 15 12 11 9 10 7 3 13 15 14 11 11 10 9 10 15 16 13 14 12 8 8 7 8 9 7 4 5 2 3
12 12 11 10 7 5 11 4 12 17 17 14 11 10 12 9 13 13 16 13 13 9 11 9 10 3 5 9 12 12 11 9 10 10 13 14 14 14 12 10 9 9 6 7 8 6 4 2 4
3 5 5 5 8 5 5 2 17 22 18 24 23 19 11 18 16 14 12 11 8 9 12 12 10 9 4 6 5 8 9 5 5 7 7 10 12 13 13 12 10 9 7 8 9 6 7 4 1
4 6 4 7 6 4 3 3 12 22 19 25 27 28 22 8 12 11 12 12 8 3 6 8 9 7 4 5 5 10 9 9 7 7 6 8 12 12 11 11 10 10 7 7 8 5 4 5 5
8 5 7 2 1 3 6 2 10 16 20 23 23 23 19 8 7 10 11 9 8 8 5 8 8 7 9 8 9 10 9 9 8 8 7 5 6 9 11 11 10 9 7 7 8 7 6 4 5
6 3 1 2 3 2 6 3 6 16 20 20 22 25 26 11 6 7 6 8 9 6 3 17 2 4 9 11 12 14 13 11 12 11 12 10 8 7 9 9 9 9 7 7 7 6 7 5 4
8 3 3 5 2 2 7 6 3 16 18 15 19 21 19 20 6 11 11 8 8 9 9 3 4 4 6 11 10 13 13 14 16 15 12 12 9 7 9 8 8 7 8 6 6 6 8 7 5
5 3 4 3 2 1 6 6 4 13 14 15 15 18 19 19 17 17 15 7 8 7 3 2 3 3 8 13 15 10 11 9 7 11 8 10 10 10 9 10 8 8 8 8 6 5 4 8 5
4 4 2 2 3 5 3 2 4 16 18 18 18 18 19 22 18 17 16 13 6 4 4 3 5 6 7 6 13 13 8 7 6 6 3 3 6 4 7 7 7 6 6 6 8 6 7 4 5
3 3 2 3 4 3 2 1 5 13 17 16 18 18 16 15 17 16 13 12 9 4 3 4 1 4 6 4 7 6 10 8 6 5 5 5 3 5 5 6 7 6 5 6 5 3 4 5 3
7 5 4 2 2 5 3 2 5 7 10 10 12 13 14 15 13 11 11 11 11 10 6 4 1 2 3 4 8 9 8 8 6 5 4 5 3 4 5 5 5 6 6 5 5 5 5 6 6
1 3 2 4 3 3 4 1 7 7 7 7 10 11 11 11 12 12 12 12 12 11 10 10 6 1 3 4 4 6 7 6 5 4 3 1 1 3 4 2 1 3 6 8 7 8 8 9 8
Wind_Direction
351 22 53 42 107 226 236 233 225 192 197 300 300 192 200 208 179 213 311 182 132 161 170 168 171 169 166 163 155 151 149 147 144 142 144 144 144 143 141 138 143 137 132 124 118 116 111 111 110
357 88 47 85 165 189 256 205 221 222 6 301 296 286 277 264 319 339 322 268 154 159 165 170 172 170 166 164 158 155 153 150 149 145 145 146 148 149 148 143 139 131 129 124 118 112 105 105 112
37 50 94 141 205 193 224 73 47 316 321 342 351 11 305 273 356 341 325 177 160 165 165 170 172 170 170 166 161 159 156 155 153 150 149 148 152 145 145 144 133 128 124 128 117 115 112 103 96
67 16 34 126 233 265 214 156 14 341 343 41 4 295 301 173 65 4 354 268 181 167 173 169 173 172 171 170 165 163 159 159 158 154 153 150 152 146 144 134 128 125 130 134 129 126 116 103 106
33 60 73 252 259 254 296 213 303 295 285 277 23 280 289 298 11 17 23 11 347 251 177 173 174 175 171 172 172 168 163 160 158 156 156 154 153 146 139 132 131 131 136 138 137 130 121 106 116
41 81 80 250 238 204 248 271 316 232 233 300 277 258 246 86 34 4 19 10 0 348 239 197 173 176 174 172 174 171 166 162 159 158 156 157 154 147 140 137 137 138 140 140 138 133 123 113 119
111 98 227 268 273 279 203 169 174 278 286 280 221 263 266 329 19 12 41 35 354 352 274 204 203 175 174 173 176 175 171 164 163 160 158 159 149 144 144 142 142 141 143 140 136 137 128 119 116
109 101 272 250 170 285 99 339 313 234 261 263 174 250 256 194 322 278 84 87 5 341 333 198 200 205 177 172 172 178 171 163 162 160 156 148 147 146 145 144 145 142 140 138 138 139 136 128 125
65 105 248 257 226 249 205 289 187 263 262 265 236 238 269 286 317 322 308 16 61 304 6 233 199 198 195 178 172 170 164 160 156 146 143 140 148 146 144 144 144 141 141 142 142 141 138 132 124
151 222 238 195 240 279 289 287 291 279 281 274 280 258 239 267 263 269 279 276 222 223 275 276 237 192 195 184 177 169 162 165 158 149 151 149 149 147 146 143 139 142 143 144 146 144 140 120 106
186 233 244 278 282 289 291 285 267 273 276 254 269 281 251 266 258 240 243 251 197 176 228 243 252 192 186 184 177 176 167 163 156 152 154 151 147 143 144 145 141 140 135 138 135 127 118 129 133
226 242 254 273 267 276 263 276 271 241 254 268 261 266 266 254 259 243 239 220 235 214 210 252 353 206 191 174 176 175 173 170 163 164 158 154 152 152 152 156 150 144 147 138 141 145 149 148 151
248 259 259 260 265 262 267 258 257 269 255 259 263 259 260 251 251 239 232 242 211 226 245 214 256 213 172 176 180 173 179 171 166 163 162 156 154 156 152 152 149 145 137 148 151 158 163 167 186
247 253 263 268 266 268 261 266 244 264 267 256 252 251 255 242 244 246 218 221 229 235 215 219 206 200 170 185 177 172 175 168 164 162 164 157 157 153 155 153 150 147 153 148 154 169 175 191 179
266 281 289 266 262 257 226 266 229 251 274 263 258 254 256 250 252 237 229 219 220 226 249 125 230 190 180 186 173 168 175 167 161 167 161 156 162 153 156 162 158 162 154 151 156 172 161 181 197
233 196 290 286 200 244 130 282 279 273 256 263 261 253 258 259 249 226 218 220 210 197 187 123 327 190 172 174 171 168 180 167 163 166 162 164 167 157 166 168 172 160 158 161 166 166 179 207 194
285 272 258 295 260 240 203 289 283 309 292 271 272 263 261 262 259 234 211 207 194 191 156 100 63 196 158 160 171 176 179 172 168 161 165 172 171 167 160 173 173 166 165 169 169 159 153 174 192
273 262 279 278 268 291 269 266 288 326 319 287 277 260 264 274 253 209 197 197 177 195 140 120 108 335 167 162 156 173 172 179 176 166 166 172 176 180 172 167 170 171 164 165 163 158 169 175 176
257 272 276 277 278 294 268 282 3 342 323 307 282 258 260 257 260 228 201 182 182 196 142 123 81 41 185 163 166 158 167 184 173 178 168 172 177 181 185 175 168 170 183 188 173 146 159 150 154
263 272 272 268 292 282 290 305 19 329 337 321 341 296 263 241 244 251 199 171 199 171 124 119 140 97 255 148 160 166 162 185 180 193 164 177 175 179 178 179 181 181 169 169 178 166 141 125 166
281 251 268 273 324 293 329 306 6 339 350 354 3 347 299 242 239 184 176 174 183 166 136 154 161 149 248 150 146 151 154 138 149 184 159 176 178 179 175 179 180 178 173 186 184 172 154 144 117
290 268 308 311 19 302 45 284 1 341 342 1 355 347 336 195 149 146 148 167 179 111 106 111 140 152 214 133 160 167 160 164 163 172 160 173 184 181 179 172 173 177 179 178 186 173 164 139 154
239 259 255 277 294 313 323 88 352 346 352 358 349 333 341 135 123 132 138 140 149 124 183 159 107 163 199 192 182 178 181 164 159 154 130 172 181 183 180 178 171 176 181 186 181 177 171 161 151
303 312 66 76 134 28 304 21 341 352 335 338 346 358 2 3 115 105 111 108 99 114 87 62 321 236 197 189 192 184 170 160 164 172 165 172 192 198 185 182 176 182 181 183 188 175 173 176 135
5 30 30 19 39 99 323 51 42 342 342 352 342 356 1 6 57 65 58 73 81 71 58 98 354 354 247 202 186 179 165 161 169 169 171 173 180 193 194 176 167 180 184 174 157 169 184 179 181
320 26 130 138 96 95 356 23 2 346 353 7 2 1 1 12 19 38 31 50 71 79 71 124 99 328 304 205 190 182 154 147 160 171 181 180 193 195 197 191 179 174 171 163 173 192 188 189 141
331 39 261 76 58 70 338 322 287 348 360 5 8 14 12 2 18 18 26 11 32 40 54 22 28 357 344 176 192 171 146 131 126 114 135 199 182 164 179 172 156 177 147 163 178 174 189 159 157
68 332 70 2 74 82 3 21 11 348 351 1 10 12 14 13 9 19 7 3 355 2 350 315 274 16 17 8 96 86 110 107 101 117 141 131 135 139 156 157 152 154 182 181 177 144 134 156 187
348 11 19 78 26 146 145 37 339 340 351 348 6 9 14 18 13 12 12 10 8 30 24 336 265 131 102 65 79 93 79 92 108 112 106 98 131 127 135 159 162 162 151 171 214 191 176 195 209
102 4 101 108 290 47 142 85 309 323 338 21 12 6 12 18 12 20 24 17 15 15 16 20 14 109 157 123 96 97 92 98 96 111 130 133 261 199 187 174 274 171 178 182 197 202 208 207 203